Flag for Norway Weather past 2 weeks in Ålesund, Norway

Now
66 °F

Sunny.


Feels Like: 66 °F
Forecast: 55 / 65 °F
Wind: 10 mph from Northeast

Location: Alesund / Vigra

Current Time: Aug 29, 2014 at 4:48:55 PM

Latest Report: Aug 29, 2014 at 4:20 PM


Visibility: 10 mi

Pressure: 29.83 "Hg

Humidity: 64%

Dew point: 54 °F

Location of ÅlesundLocation

Historic Weather in Ålesund — Graph

°F

Ålesund temperature yesterday

Maximum temperature yesterday: 66 °F (at 4:20 PM)
Minimum temperature yesterday: 48 °F (at 11:20 PM)
Average temperature yesterday: 57 °F

Past Weeks' High & Low Weather Summary

 TemperatureHumidityPressure
High66 °F (Aug 28, 4:20 PM)100% (Aug 20, 10:20 AM)30.04 "Hg (Aug 20, 10:20 AM)
Low46 °F (Aug 29, 6:50 AM)48% (Aug 16, 12:50 PM)29.21 "Hg (Aug 18, 7:20 AM)
Average56 °F81%29.67 "Hg
* Reported Aug 14 3:20 PM — Aug 29 3:20 PM, Ålesund, Weather by CustomWeather, © 2014

Note: Actual official high and low records may vary slightly from our data, if they occured in-between our weather recording intervals... More about our weather records

Advertising

Ålesund weather history for previous 24 hours

 ConditionsComfort  
Time TempWeatherWind HumidityBarometerVisibility
3:20 PM
Aug 29
66 °FSunny.10 mph64%29.83 "Hg10 mi
2:50 PM66 °FSunny.8 mph60%29.83 "Hg10 mi
2:20 PM66 °FSunny.8 mph64%29.83 "Hg10 mi
1:50 PM66 °FSunny.7 mph64%29.86 "Hg10 mi
1:20 PM64 °FSunny.8 mph64%29.86 "Hg10 mi
12:50 PM63 °FSunny.9 mph73%29.86 "Hg10 mi
12:20 PM63 °FSunny.9 mph73%29.86 "Hg10 mi
11:50 AM63 °FSunny.12 mph73%29.86 "Hg10 mi
11:20 AM61 °FSunny.12 mph72%29.86 "Hg10 mi
10:50 AM61 °FSunny.6 mph72%29.86 "Hg10 mi
10:20 AM59 °FSunny.6 mph77%29.86 "Hg10 mi
9:50 AM59 °FSunny.6 mph77%29.86 "Hg10 mi
9:20 AM59 °FPassing clouds.5 mph77%29.86 "HgN/A
8:50 AM57 °FSunny.3 mph82%29.86 "Hg10 mi
8:20 AM55 °FSunny.5 mph88%29.89 "Hg10 mi
7:50 AM54 °FSunny.3 mph94%29.89 "Hg10 mi
7:20 AM50 °FPassing clouds.5 mph100%29.89 "HgN/A
6:50 AM46 °FClear.3 mph100%29.89 "Hg10 mi
6:20 AM48 °FPassing clouds.5 mph100%29.89 "HgN/A
5:50 AM48 °FClear.5 mph100%29.89 "Hg10 mi
5:20 AM48 °FCool.5 mph100%29.89 "HgN/A
4:50 AM48 °FCool.5 mph94%29.89 "HgN/A
4:20 AM50 °FCool.3 mph94%29.89 "HgN/A
3:50 AM52 °FCool.6 mph100%29.89 "HgN/A
3:20 AM50 °FCool.6 mph94%29.92 "HgN/A
2:50 AM52 °FCool.7 mph100%29.92 "HgN/A
2:20 AM52 °FCool.7 mph100%29.92 "HgN/A
1:50 AM48 °FCool.5 mph94%29.92 "HgN/A
1:20 AM48 °FCool.3 mph100%29.92 "HgN/A
12:50 AM48 °FCool.1 mph100%29.92 "HgN/A
12:20 AM48 °FCool.3 mph100%29.95 "HgN/A
11:50 PM
Aug 28
48 °FCool.5 mph100%29.95 "HgN/A
11:20 PM48 °FCool.5 mph94%29.95 "HgN/A
10:50 PM50 °FCool.5 mph94%29.95 "HgN/A
10:20 PM52 °FClear.5 mph88%29.95 "Hg10 mi
9:50 PM52 °FSunny.6 mph88%29.95 "Hg10 mi
9:20 PM55 °FSunny.5 mph82%29.95 "Hg10 mi
8:50 PM57 °FSunny.5 mph77%29.95 "Hg10 mi
8:20 PM59 °FSunny.6 mph72%29.95 "Hg10 mi
7:50 PM59 °FSunny.7 mph72%29.95 "Hg10 mi
7:20 PM61 °FSunny.8 mph68%29.95 "Hg10 mi
6:50 PM61 °FSunny.8 mph68%29.95 "Hg10 mi
6:20 PM63 °FSunny.8 mph59%29.95 "Hg10 mi
5:50 PM64 °FSunny.2 mph56%29.95 "Hg10 mi
5:20 PM63 °FPassing clouds.3 mph64%29.95 "HgN/A
4:50 PM64 °FSunny.6 mph56%29.95 "Hg10 mi
4:20 PM66 °FSunny.6 mph56%29.95 "Hg10 mi
Weather by CustomWeather, © 2014

See weather overviewHow to use our weather pages